Location: �perlecques
(50.8057°N, 2.1521°E)
Time: 11:06:28
(UTC+00:00)

Vanguard 1 Rocket - Pass Details

Date: 05 August 2021
Orbit: 650 x 4226 km, 34.3° (Epoch: 19 September)

Event Time Altitude Azimuth Distance (km) Brightness Sun altitude
Rises 06:46:19 0° 203° (SSW) 8,459 12.1 20.7°
Reaches altitude 10° 06:54:14 10° 192° (SSW) 7,356 11.9 21.9°
Maximum altitude 07:11:05 25° 149° (SSE) 5,390 12.0 24.6°
Drops below altitude 10° 07:23:31 10° 103° (ESE) 5,410 13.1 26.5°
Sets 07:27:59 0° 91° (E) 5,909 12.8 27.2°
